Tracking 20037 objects as of 20-Nov-2019
Live streaming from Space Station
objects crossing your sky now

IRIDIUM 131

Track IRIDIUM 131 now!
10-day predictions
IRIDIUM 131 is classified as:


NORAD ID: 43079
Int'l Code: 2017-083K
Perigee: 783.3 km
Apogee: 786.3 km
Inclination: 86.4 °
Period: 100.4 minutes
Semi major axis: 7155 km
RCS: Unknown
Launch date: December 23, 2017
Source: United States (US)
Launch site: AIR FORCE WESTERN TEST RANGE (AFWTR)
aabbcc
Your satellite tracking list
Your tracking list is empty




NASA's NSSDC Master Catalog

Two Line Element Set (TLE):
1 43079U 17083K   19323.82697048 +.00000079 +00000-0 +21261-4 0  9996
2 43079 086.4002 245.5177 0002043 078.2244 281.9181 14.34219329099918
Source of the keplerian elements: AFSPC